Location: Unspecified
(33.7106°N, 0.0000°E)
Time: 04:36:13
(UTC+00:00)

NOAA 15 - Visible Passes

Search period start: 04 April 2026 00:00
Search period end: 14 April 2026 00:00
Orbit: 795 x 808 km, 98.5° (Epoch: 29 March)

Date Brightness Start Highest point End Pass type
(mag) Time Alt. Az. Time Alt. Az. Time Alt. Az.
4 Apr 5.3 18:47:27 10° S 18:52:40 59° W 18:57:53 10° NNW visible
6 Apr 7.3 19:36:21 10° SW 19:40:07 20° W 19:43:54 10° NW visible
7 Apr 6.3 19:08:55 10° SSW 19:13:44 36° W 19:18:35 10° NNW visible
8 Apr 5.1 18:42:11 10° S 18:47:26 67° WSW 18:52:42 10° NNW visible
9 Apr 7.7 19:59:35 10° WSW 20:01:19 12° W 20:03:04 10° WNW visible
10 Apr 7.1 19:30:49 10° SW 19:34:51 22° W 19:38:55 10° NW visible
11 Apr 6.1 19:03:32 10° SSW 19:08:29 40° W 19:13:27 10° NNW visible
13 Apr 7.5 19:53:35 10° WSW 19:56:02 13° W 19:58:29 10° WNW visible
